Hourly Weather Roundup
Issued by NWS Central Illinois

Home | Current Version | Previous Version | Graphics & Text | Print | Product List | Glossary On
Versions: 1 2 3 4 5 6 7 8 9 10 11 12 13 14 15 16 17 18 19 20 21 22 23 24 25 26 27 28 29 30 31 32 33 34 35 36 37 38 39 40 41 42 43 44 45 46 47 48 49 50
000
NZUS43 KILX 171510
HWRILX

Area Weather Roundup
National Weather Service Lincoln IL
1000 AM CDT THU AUG 17 2017

NOTE:  "FAIR" indicates few or no clouds below 12,000 feet, with
       no sigificant weather and/or obstructions to visibility.


CITY           SKY/WX    TMP DP  RH WIND       PRES   REMARKS
Bloomington    CLOUDY    71  68  90 SW13G22   29.85R
Champaign      MOSUNNY   76  68  76 SW16      29.86S
Danville       CLOUDY    74  69  83 SW9       29.84R
Decatur        PTSUNNY   75  67  76 SW16      29.86F
Effingham      CLOUDY    76  73  92 S9        29.91S
Flora          CLOUDY    75  72  89 SW7       29.92R
Galesburg      CLOUDY    74  67  79 SW12G18   29.83R
Jacksonville   CLOUDY    72  68  87 W10       29.87R
Lacon          CLOUDY    73  69  88 SW9       29.80R
Lawrenceville  PTSUNNY   79  74  84 W16       29.91R HX  82
Litchfield     PTSUNNY   75  69  81 SW10G16   29.90R
$$


CITY           SKY/WX    TMP DP  RH WIND       PRES   REMARKS
Lincoln        CLOUDY    73  69  88 SW7       29.85S
Macomb         CLOUDY    73  68  83 W10G21    29.85S
Mattoon        MOSUNNY   76  71  85 SW9G20    29.88S
Mt Carmel AP   PTSUNNY   79  74  85 W13G21    29.91R HX  82
Olney-Noble AP CLOUDY    75  73  92 SW7       29.92R
Paris AP       CLOUDY    74  69  83 S7        29.88F
Peoria         CLOUDY    73  69  87 W12G21    29.83R
Pontiac        CLOUDY    74  72  93 SW14G21   29.82S
Rantoul        CLOUDY    81  68  65 W13G20    29.84S HX  84
Robinson       CLOUDY    75  72  92 W7        29.91R
Springfield    CLOUDY    74  69  85 W10       29.86S
Taylorville    CLOUDY    73  68  83 SW15G21   29.88R
$$

...REGIONAL REPORTS...


CITY           SKY/WX    TMP DP  RH WIND       PRES   REMARKS
Chicago O`Hare CLOUDY    74  69  85 S13       29.75F
Kankakee       CLOUDY    74  69  84 SW17      29.81F
Moline         MOSUNNY   76  65  68 W13G21    29.77S
Mount Sterling CLOUDY    72  68  88 SW12      29.86S
Mount Vernon   CLOUDY    74  72  93 W8        29.94R
Pittsfield     CLOUDY    73  69  88 SW9       29.89S
Quincy         CLOUDY    74  68  81 SW16      29.86R
Rockford       CLOUDY    76  69  79 SW13      29.75F
$$


CITY           SKY/WX    TMP DP  RH WIND       PRES   REMARKS
Burlington     MOSUNNY   76  66  71 W13G20    29.81S
Cedar Rapids   CLOUDY    74  66  76 W16       29.75S
Des Moines     CLOUDY    73  63  70 W20G25    29.81R
Kirksville     MOSUNNY   73  64  73 W10       29.89R
Ottumwa        CLOUDY    74  64  71 W14G22    29.82R
St Louis       PTSUNNY   77  69  76 W18       29.91R
$$


CITY           SKY/WX    TMP DP  RH WIND       PRES   REMARKS
Terre Haute    CLOUDY    74  67  78 W9G18     29.90R
Evansville     CLOUDY    83  74  74 SW13      29.93R HX  89
Indianapolis   PTSUNNY   80  74  81 SW21G28   29.86F HX  85
Lafayette      CLOUDY    75  72  90 SW10      29.83S
Madison        PTSUNNY   73  65  75 SW10G17   29.69S
Milwaukee      PTSUNNY   76  71  85 SW14      29.72F
$$






USA.gov is the U.S. government's official web portal to all federal, state and local government web resources and services.